Poplar Bluff, MO

8:50 AM CST on December 15, 2017 (GMT -0600)
Poplar Bluff Municipal

Weather History for KPOF - February, 2014

Change the Weather History Date:

Wednesday, February 5, 2014

  Actual Average Record
Temperature  
Mean Temperature 26 °F -  
Max Temperature 30 °F 46 °F 74 °F (1943)
Min Temperature 19 °F 24 °F -2 °F (1936)
Degree Days  
Heating Degree Days 40    
Moisture  
Dew Point 18 °F    
Average Humidity 69    
Maximum Humidity 79    
Minimum Humidity 61    
Precipitation  
Precipitation 0.00 in - - ()
Sea Level Pressure  
Sea Level Pressure 30.29 in    
Wind  
Wind Speed 10 mph (NW)    
Max Wind Speed 18 mph    
Max Gust Speed 26 mph    
Visibility 9 miles    
Events Snow    
Averages and records for this station are not official NWS values.
T = Trace of Precipitation, MM = Missing Value Source: NWS Daily Summary

Daily Weather History Graph

Daily Weather History Graph

Search for Another Location

Airport or City:

Trip Planner

Search our weather history database for the weather conditions in past years. The results will help you decide how hot, cold, wet, or windy it might be!

Date:

Astronomy

Feb. 05, 2014 Rise Set
Actual Time 6:59 AM CST 5:31 PM CST
Civil Twilight 6:32 AM CST 5:58 PM CST
Nautical Twilight 6:02 AM CST 6:28 PM CST
Astronomical Twilight 5:31 AM CST 6:59 PM CST
Moon 10:25 AM CST (2/5) No Moon Set
Length of Visible Light 11h 25m
Length of Day
10h 31m
Waxing Crescent, 39% of the Moon is Illuminated
Feb 5
Waxing Crescent
Feb 6
First Quarter
Feb 14
Full
Feb 22
Last Quarter
Mar 1
New

Hourly Weather History & Observations

Time (CST) Temp. Windchill Dew Point Humidity Pressure Visibility Wind Dir Wind Speed Gust Speed Precip Events Conditions
12:53 AM 30.0 °F 23.2 °F 24.1 °F 79% 29.97 in 7.0 mi WNW 6.9 mph - N/A   Overcast
1:53 AM 30.0 °F 24.1 °F 24.1 °F 79% 29.98 in 7.0 mi WNW 5.8 mph - N/A   Overcast
2:23 AM 30.0 °F 24.1 °F 24.1 °F 79% 29.97 in 6.0 mi West 5.8 mph - 0.00 in Snow Light Snow
2:46 AM 30.0 °F 23.2 °F 24.1 °F 79% 29.98 in 7.0 mi West 6.9 mph - 0.00 in   Overcast
2:53 AM 30.0 °F 23.2 °F 24.1 °F 79% 30.01 in 8.0 mi WNW 6.9 mph - 0.00 in   Overcast
3:53 AM 30.0 °F 21.1 °F 21.9 °F 72% 30.03 in 10.0 mi WNW 10.4 mph - N/A   Overcast
4:53 AM 28.9 °F 19.8 °F 21.9 °F 75% 30.07 in 10.0 mi NW 10.4 mph - N/A   Overcast
5:39 AM 28.0 °F 17.0 °F 19.9 °F 72% 30.09 in 10.0 mi NW 13.8 mph - N/A   Overcast
5:53 AM 28.0 °F 17.5 °F 19.0 °F 69% 30.13 in 10.0 mi NW 12.7 mph 23.0 mph N/A   Overcast
6:53 AM 26.1 °F 14.5 °F 18.0 °F 71% 30.19 in 10.0 mi WNW 13.8 mph - N/A   Overcast
7:53 AM 25.0 °F 13.1 °F 17.1 °F 72% 30.24 in 4.0 mi NW 13.8 mph - 0.00 in Snow Light Snow
8:05 AM 25.0 °F 14.2 °F 17.1 °F 72% 30.23 in 2.5 mi WNW 11.5 mph 18.4 mph 0.00 in Snow Light Snow
8:25 AM 25.0 °F 13.1 °F 16.0 °F 69% 30.25 in 4.0 mi NW 13.8 mph 24.2 mph 0.00 in Snow Light Snow
8:53 AM 25.0 °F 12.6 °F 16.0 °F 69% 30.29 in 7.0 mi NW 15.0 mph 20.7 mph 0.00 in   Overcast
9:53 AM 25.0 °F 13.6 °F 15.1 °F 66% 30.32 in 7.0 mi NNW 12.7 mph 23.0 mph 0.00 in   Overcast
10:53 AM 26.1 °F 12.7 °F 16.0 °F 66% 30.34 in 8.0 mi NNW 18.4 mph 26.5 mph N/A   Overcast
11:53 AM 27.0 °F 15.2 °F 17.1 °F 66% 30.36 in 9.0 mi NNW 15.0 mph 24.2 mph N/A   Overcast
12:53 PM 28.0 °F 17.0 °F 18.0 °F 66% 30.35 in 10.0 mi NW 13.8 mph - N/A   Mostly Cloudy
1:53 PM 28.9 °F 20.4 °F 19.0 °F 67% 30.36 in 10.0 mi NNW 9.2 mph - N/A   Overcast
2:53 PM 30.0 °F 20.0 °F 19.0 °F 64% 30.38 in 10.0 mi NNW 12.7 mph - N/A   Overcast
3:53 PM 28.9 °F 20.4 °F 19.0 °F 67% 30.41 in 10.0 mi NNW 9.2 mph - N/A   Mostly Cloudy
4:53 PM 28.9 °F 18.6 °F 17.1 °F 61% 30.43 in 10.0 mi NNW 12.7 mph - N/A   Overcast
5:53 PM 27.0 °F 16.1 °F 17.1 °F 66% 30.48 in 10.0 mi NW 12.7 mph - N/A   Overcast
6:15 PM 27.0 °F 15.6 °F 16.0 °F 63% 30.46 in 10.0 mi NNW 13.8 mph - N/A   Overcast
6:53 PM 26.1 °F 16.2 °F 16.0 °F 66% 30.51 in 10.0 mi NW 10.4 mph - N/A   Overcast
7:53 PM 25.0 °F 14.2 °F 15.1 °F 66% 30.52 in 10.0 mi NNW 11.5 mph - N/A   Overcast
8:03 PM 24.1 °F 13.1 °F 14.0 °F 65% 30.50 in 10.0 mi NNW 11.5 mph - N/A   Overcast
8:53 PM 23.0 °F 10.6 °F 12.9 °F 65% 30.53 in 10.0 mi North 13.8 mph - N/A   Overcast
9:53 PM 21.9 °F 11.7 °F 12.9 °F 68% 30.57 in 10.0 mi NNW 9.2 mph - N/A   Overcast
10:53 PM 21.0 °F 8.6 °F 10.9 °F 65% 30.56 in 10.0 mi NNW 12.7 mph - N/A   Overcast
11:53 PM 19.9 °F 6.7 °F 10.0 °F 65% 30.56 in 10.0 mi NNW 13.8 mph - N/A   Overcast